Location: Berlin
(38.3226°N, 75.2177°W)
Time: 16:17:44
(UTC+00:00)

Cosmos 2082 - Pass Details

Date: 26 October 2020
Orbit: 832 x 857 km, 71.0° (Epoch: 25 November)

Event Time Altitude Azimuth Distance (km) Brightness Sun altitude
Rises 00:15:16 0° 341° (NNW) 3,433 7.2 -25.4°
Reaches altitude 10° 00:17:46 10° 345° (NNW) 2,495 6.4 -25.9°
Enters shadow 00:22:22 51° 21° (NNE) 1,067 4.0 -26.8°
